Weather History for KPPA - November, 2012

Change the Weather History Date:

Thursday, November 8, 2012

  Actual Average Record
Temperature  
Mean Temperature 64 °F -  
Max Temperature 80 °F 62 °F 81 °F (1980)
Min Temperature 48 °F 37 °F 21 °F (1991)
Degree Days  
Heating Degree Days 1    
Growing Degree Days 14 (Base 50)    
Moisture  
Dew Point 27 °F    
Average Humidity 31    
Maximum Humidity 62    
Minimum Humidity 10    
Precipitation  
Precipitation 0.00 in - - ()
Sea Level Pressure  
Sea Level Pressure 29.89 in    
Wind  
Wind Speed 14 mph (SW)    
Max Wind Speed 17 mph    
Max Gust Speed 23 mph    
Visibility 10 miles    
Events      
Averages and records for this station are not official NWS values.
T = Trace of Precipitation, MM = Missing Value Source: NWS Daily Summary

Daily Weather History Graph

Daily Weather History Graph

Search for Another Location

Airport or City:

Trip Planner

Search our weather history database for the weather conditions in past years. The results will help you decide how hot, cold, wet, or windy it might be!

Date:

Astronomy

Nov. 08, 2012 Rise Set
Actual Time 7:13 AM CST 5:41 PM CST
Civil Twilight 6:46 AM CST 6:08 PM CST
Nautical Twilight 6:15 AM CST 6:39 PM CST
Astronomical Twilight 5:45 AM CST 7:09 PM CST
Moon 1:22 AM CST (11/8) 2:13 PM CST (11/8)
Length of Visible Light 11h 22m
Length of Day
10h 28m
Waning Crescent, 32% of the Moon is Illuminated
Nov 8
Waning Crescent
Nov 13
New
Nov 20
First Quarter
Nov 28
Full
Dec 6
Last Quarter

Hourly Weather History & Observations

Time (CST) Temp. Dew Point Humidity Pressure Visibility Wind Dir Wind Speed Gust Speed Precip Events Conditions
12:15 AM 57.2 °F 37.4 °F 48% 29.95 in 10.0 mi South 17.3 mph - N/A   Clear
12:35 AM 55.4 °F 37.4 °F 51% 29.95 in 10.0 mi South 17.3 mph - N/A   Clear
12:55 AM 55.4 °F 37.4 °F 51% 29.95 in 10.0 mi South 16.1 mph - N/A   Clear
1:15 AM 55.4 °F 39.2 °F 54% 29.94 in 10.0 mi South 16.1 mph - N/A   Clear
1:35 AM 53.6 °F 39.2 °F 58% 29.94 in 10.0 mi South 16.1 mph - N/A   Clear
1:55 AM 53.6 °F 39.2 °F 58% 29.94 in 10.0 mi South 15.0 mph - N/A   Clear
2:15 AM 51.8 °F 39.2 °F 62% 29.93 in 10.0 mi South 16.1 mph - N/A   Clear
2:35 AM 51.8 °F 37.4 °F 58% 29.92 in 10.0 mi South 15.0 mph - N/A   Clear
2:55 AM 50.0 °F 37.4 °F 62% 29.92 in 10.0 mi South 15.0 mph - N/A   Clear
3:15 AM 51.8 °F 37.4 °F 58% 29.92 in 10.0 mi South 16.1 mph - N/A   Clear
3:35 AM 51.8 °F 37.4 °F 58% 29.91 in 10.0 mi South 17.3 mph 21.9 mph N/A   Clear
3:55 AM 51.8 °F 37.4 °F 58% 29.91 in 10.0 mi South 17.3 mph - N/A   Clear
4:15 AM 51.8 °F 37.4 °F 58% 29.91 in 10.0 mi SSW 16.1 mph - N/A   Clear
4:35 AM 51.8 °F 35.6 °F 54% 29.90 in 10.0 mi SSW 17.3 mph 23.0 mph N/A   Clear
4:55 AM 51.8 °F 35.6 °F 54% 29.90 in 10.0 mi SSW 15.0 mph - N/A   Clear
5:15 AM 51.8 °F 35.6 °F 54% 29.90 in 10.0 mi SSW 15.0 mph - N/A   Clear
5:35 AM 53.6 °F 33.8 °F 47% 29.90 in 10.0 mi SSW 17.3 mph - N/A   Clear
5:55 AM 51.8 °F 32.0 °F 47% 29.90 in 10.0 mi SSW 17.3 mph - N/A   Clear
6:15 AM 51.8 °F 32.0 °F 47% 29.90 in 10.0 mi SSW 17.3 mph - N/A   Clear
6:35 AM 51.8 °F 32.0 °F 47% 29.90 in 10.0 mi SW 16.1 mph - N/A   Clear
6:55 AM 50.0 °F 32.0 °F 50% 29.90 in 10.0 mi SW 16.1 mph - N/A   Clear
7:15 AM 50.0 °F 30.2 °F 47% 29.91 in 10.0 mi SSW 12.7 mph - N/A   Clear
7:35 AM 48.2 °F 30.2 °F 50% 29.92 in 10.0 mi WSW 6.9 mph - N/A   Clear
7:55 AM 50.0 °F 30.2 °F 47% 29.92 in 10.0 mi SW 9.2 mph - N/A   Clear
8:15 AM 51.8 °F 30.2 °F 44% 29.93 in 10.0 mi SW 6.9 mph - N/A   Clear
8:35 AM 55.4 °F 28.4 °F 36% 29.93 in 10.0 mi SW 9.2 mph - N/A   Clear
8:55 AM 59.0 °F 28.4 °F 31% 29.93 in 10.0 mi SW 8.1 mph - N/A   Clear
9:15 AM 62.6 °F 26.6 °F 26% 29.94 in 10.0 mi WSW 13.8 mph - N/A   Clear
9:35 AM 64.4 °F 24.8 °F 22% 29.94 in 10.0 mi West 13.8 mph - N/A   Clear
9:55 AM 64.4 °F 23.0 °F 21% 29.94 in 10.0 mi West 12.7 mph - N/A   Clear
10:15 AM 69.8 °F 21.2 °F 16% 29.94 in 10.0 mi West 13.8 mph - N/A   Clear
10:35 AM 69.8 °F 21.2 °F 16% 29.94 in 10.0 mi West 17.3 mph - N/A   Clear
10:55 AM 71.6 °F 21.2 °F 15% 29.94 in 10.0 mi WSW 13.8 mph - N/A   Clear
11:15 AM 73.4 °F 21.2 °F 14% 29.93 in 10.0 mi West 8.1 mph - N/A   Clear
11:35 AM 75.2 °F 21.2 °F 13% 29.92 in 10.0 mi West 9.2 mph - N/A   Clear
11:55 AM 77.0 °F 19.4 °F 12% 29.92 in 10.0 mi West 10.4 mph - N/A   Clear
12:15 PM 77.0 °F 19.4 °F 12% 29.90 in 10.0 mi West 10.4 mph 19.6 mph N/A   Clear
12:55 PM 78.8 °F 21.2 °F 12% 29.88 in 10.0 mi West 10.4 mph 16.1 mph N/A   Clear
1:15 PM 77.0 °F 19.4 °F 12% 29.87 in 10.0 mi West 10.4 mph - N/A   Clear
1:35 PM 80.6 °F 19.4 °F 10% 29.87 in 10.0 mi WSW 10.4 mph - N/A   Clear
1:55 PM 78.8 °F 19.4 °F 11% 29.87 in 10.0 mi WSW 10.4 mph 16.1 mph N/A   Clear
2:15 PM 77.0 °F 19.4 °F 12% 29.86 in 10.0 mi WSW 8.1 mph - N/A   Clear
2:35 PM 78.8 °F 19.4 °F 11% 29.86 in 10.0 mi West 13.8 mph - N/A   Clear
2:55 PM 78.8 °F 19.4 °F 11% 29.86 in 10.0 mi WSW 9.2 mph - N/A   Clear
3:15 PM 78.8 °F 19.4 °F 11% 29.86 in 10.0 mi WSW 9.2 mph - N/A   Clear
3:35 PM 78.8 °F 19.4 °F 11% 29.86 in 10.0 mi WSW 10.4 mph - N/A   Clear
3:55 PM 78.8 °F 21.2 °F 12% 29.86 in 10.0 mi WSW 13.8 mph 17.3 mph N/A   Clear
4:15 PM 80.6 °F 21.2 °F 11% 29.86 in 10.0 mi WSW 12.7 mph - N/A   Clear
4:35 PM 78.8 °F 21.2 °F 12% 29.85 in 10.0 mi WSW 9.2 mph - N/A   Clear
4:55 PM 78.8 °F 21.2 °F 12% 29.85 in 10.0 mi WSW 9.2 mph - N/A   Clear
5:15 PM 77.0 °F 21.2 °F 12% 29.85 in 10.0 mi WSW 6.9 mph - N/A   Clear
5:35 PM 71.6 °F 19.4 °F 14% 29.86 in 10.0 mi WSW 5.8 mph - N/A   Clear
5:55 PM 69.8 °F 19.4 °F 15% 29.85 in 10.0 mi WSW 4.6 mph - N/A   Clear
6:15 PM 69.8 °F 19.4 °F 15% 29.86 in 10.0 mi WSW 6.9 mph - N/A   Clear
6:35 PM 68.0 °F 19.4 °F 16% 29.87 in 10.0 mi SW 8.1 mph - N/A   Clear
6:55 PM 62.6 °F 19.4 °F 19% 29.87 in 10.0 mi SW 8.1 mph - N/A   Clear
7:15 PM 57.2 °F 21.2 °F 25% 29.87 in 10.0 mi SSW 10.4 mph - N/A   Clear
7:35 PM 55.4 °F 21.2 °F 26% 29.87 in 10.0 mi SSW 11.5 mph - N/A   Clear
7:55 PM 55.4 °F 23.0 °F 29% 29.87 in 10.0 mi SSW 10.4 mph - N/A   Clear
8:15 PM 57.2 °F 23.0 °F 27% 29.87 in 10.0 mi SSW 11.5 mph - N/A   Clear
8:35 PM 59.0 °F 23.0 °F 25% 29.87 in 10.0 mi SW 8.1 mph - N/A   Clear
8:55 PM 62.6 °F 26.6 °F 26% 29.87 in 10.0 mi SW 8.1 mph - N/A   Clear
9:15 PM 64.4 °F 24.8 °F 22% 29.87 in 10.0 mi SSW 10.4 mph - N/A   Clear
9:35 PM 64.4 °F 24.8 °F 22% 29.87 in 10.0 mi SSW 10.4 mph - N/A   Clear
9:55 PM 64.4 °F 24.8 °F 22% 29.86 in 10.0 mi SW 13.8 mph - N/A   Clear
10:15 PM 64.4 °F 24.8 °F 22% 29.87 in 10.0 mi SSW 12.7 mph - N/A   Clear
10:35 PM 64.4 °F 24.8 °F 22% 29.86 in 10.0 mi SSW 12.7 mph - N/A   Clear
10:55 PM 60.8 °F 24.8 °F 25% 29.86 in 10.0 mi SSW 13.8 mph - N/A   Clear
11:15 PM 60.8 °F 26.6 °F 27% 29.86 in 10.0 mi SSW 15.0 mph - N/A   Clear
11:35 PM 60.8 °F 26.6 °F 27% 29.87 in 10.0 mi SSW 15.0 mph - N/A   Clear
11:55 PM 60.8 °F 26.6 °F 27% 29.87 in 10.0 mi SSW 16.1 mph - N/A   Clear